TimeCDT,TemperatureF,Dew PointF,Humidity,Sea Level PressureIn,VisibilityMPH,Wind Direction,Wind SpeedMPH,Gust SpeedMPH,PrecipitationIn,Events,Conditions,WindDirDegrees,DateUTC
12:53 AM,28.0,18.0,66,30.09,10.0,ESE,10.4,24.2,0.00,,Overcast,120,2013-03-17 05:53:00
1:28 AM,28.4,17.6,64,30.03,10.0,ESE,8.1,-,N/A,,Overcast,110,2013-03-17 06:28:00
1:44 AM,28.4,19.4,69,30.03,10.0,ESE,8.1,-,N/A,,Overcast,110,2013-03-17 06:44:00
1:53 AM,28.0,19.0,69,30.10,10.0,East,6.9,-,N/A,,Overcast,90,2013-03-17 06:53:00
2:53 AM,26.1,19.9,78,30.06,4.0,ESE,10.4,-,0.00,Snow,Light Snow,120,2013-03-17 07:53:00
3:05 AM,26.6,19.4,74,29.98,9.0,East,8.1,-,0.00,,Overcast,100,2013-03-17 08:05:00
3:53 AM,24.1,19.9,84,30.03,10.0,SE,8.1,-,0.00,,Partly Cloudy,140,2013-03-17 08:53:00
4:46 AM,23.0,19.4,86,29.94,10.0,SE,5.8,-,N/A,,Mostly Cloudy,130,2013-03-17 09:46:00
4:53 AM,23.0,19.9,88,30.02,10.0,SE,5.8,-,N/A,,Mostly Cloudy,140,2013-03-17 09:53:00
5:15 AM,23.0,19.4,86,29.94,10.0,Calm,Calm,-,N/A,,Scattered Clouds,0,2013-03-17 10:15:00
5:45 AM,21.2,19.4,93,29.94,10.0,SE,4.6,-,N/A,,Mostly Cloudy,130,2013-03-17 10:45:00
5:53 AM,23.0,19.9,88,30.02,10.0,SE,4.6,-,N/A,,Mostly Cloudy,130,2013-03-17 10:53:00
6:41 AM,24.8,21.2,86,29.95,10.0,SSE,8.1,-,N/A,,Overcast,150,2013-03-17 11:41:00
6:53 AM,25.0,21.0,85,30.03,10.0,SSE,9.2,-,N/A,,Overcast,150,2013-03-17 11:53:00
7:53 AM,25.0,21.9,88,30.01,8.0,SSE,9.2,-,N/A,,Overcast,160,2013-03-17 12:53:00
8:53 AM,25.0,21.0,85,29.99,6.0,SSE,13.8,23.0,N/A,,Overcast,150,2013-03-17 13:53:00
9:08 AM,26.6,21.2,80,29.91,7.0,SSE,16.1,24.2,N/A,,Overcast,150,2013-03-17 14:08:00
9:53 AM,26.1,21.0,81,29.97,7.0,SSE,17.3,26.5,N/A,,Overcast,150,2013-03-17 14:53:00
10:53 AM,27.0,21.0,78,29.94,9.0,SE,18.4,26.5,N/A,,Overcast,140,2013-03-17 15:53:00
11:53 AM,28.9,23.0,78,29.91,10.0,South,17.3,25.3,N/A,,Overcast,170,2013-03-17 16:53:00
12:53 PM,30.9,24.1,76,29.86,10.0,South,21.9,34.5,N/A,,Overcast,170,2013-03-17 17:53:00
1:53 PM,32.0,25.0,75,29.83,10.0,South,19.6,-,N/A,,Overcast,180,2013-03-17 18:53:00
2:20 PM,35.6,26.6,70,29.73,10.0,South,18.4,33.4,N/A,,Overcast,170,2013-03-17 19:20:00
2:53 PM,37.0,27.0,67,29.76,10.0,SSE,20.7,31.1,N/A,,Overcast,160,2013-03-17 19:53:00
3:22 PM,37.4,26.6,65,29.68,10.0,South,21.9,35.7,N/A,,Mostly Cloudy,180,2013-03-17 20:22:00
3:34 PM,37.4,26.6,65,29.67,10.0,South,19.6,34.5,N/A,,Mostly Cloudy,180,2013-03-17 20:34:00
3:53 PM,39.0,27.0,62,29.72,10.0,South,21.9,33.4,N/A,,Mostly Cloudy,180,2013-03-17 20:53:00
4:53 PM,37.9,27.0,65,29.74,10.0,SW,13.8,28.8,N/A,,Overcast,220,2013-03-17 21:53:00
5:29 PM,35.6,28.4,75,29.66,2.5,South,9.2,-,0.00,Snow,Light Snow,190,2013-03-17 22:29:00
5:43 PM,35.6,30.2,81,29.66,5.0,South,8.1,-,0.00,Snow,Light Snow,190,2013-03-17 22:43:00
5:51 PM,35.6,30.2,81,29.66,7.0,South,5.8,-,0.00,Snow,Light Snow,190,2013-03-17 22:51:00
5:53 PM,36.0,30.9,82,29.73,8.0,South,5.8,-,0.00,,Overcast,180,2013-03-17 22:53:00
6:30 PM,35.6,30.2,81,29.65,8.0,SSE,11.5,21.9,0.01,Rain,Light Freezing Rain,150,2013-03-17 23:30:00
6:53 PM,35.1,30.9,85,29.68,10.0,SE,17.3,21.9,0.01,,Overcast,130,2013-03-17 23:53:00
7:11 PM,35.6,30.2,81,29.61,10.0,SSE,13.8,23.0,0.00,Rain,Light Freezing Rain,150,2013-03-18 00:11:00
7:30 PM,35.6,30.2,81,29.62,10.0,SSE,11.5,24.2,0.00,,Overcast,150,2013-03-18 00:30:00
7:53 PM,35.1,30.9,85,29.70,10.0,SSE,11.5,21.9,0.00,,Overcast,160,2013-03-18 00:53:00
8:53 PM,35.1,30.0,82,29.72,10.0,South,17.3,23.0,N/A,,Overcast,180,2013-03-18 01:53:00
9:53 PM,34.0,30.0,85,29.68,10.0,South,18.4,24.2,N/A,,Mostly Cloudy,170,2013-03-18 02:53:00
10:53 PM,33.1,30.0,89,29.74,9.0,Variable,6.9,-,N/A,,Overcast,0,2013-03-18 03:53:00
11:16 PM,33.8,30.2,87,29.70,8.0,WSW,11.5,-,0.00,Rain,Light Rain,240,2013-03-18 04:16:00
11:36 PM,33.8,30.2,87,29.71,10.0,West,10.4,-,0.00,,Overcast,270,2013-03-18 04:36:00
11:53 PM,35.1,30.9,85,29.79,10.0,WNW,11.5,-,0.00,,Overcast,290,2013-03-18 04:53:00